Time,TemperatureF,DewpointF,PressureIn,WindDirection,WindDirectionDegrees,WindSpeedMPH,WindSpeedGustMPH,Humidity,HourlyPrecipIn,Conditions,Clouds,dailyrainin,SoftwareType,DateUTC
2013-07-22 00:01:00,65.0,60.0,29.80,ESE,111,0.0,-999.0,84,-99.99,,,-99.99,,2013-07-22 07:01:00,
2013-07-22 00:11:00,65.0,60.0,29.79,ESE,111,0.0,-999.0,84,-99.99,,,-99.99,,2013-07-22 07:11:00,
2013-07-22 00:22:00,65.0,60.0,29.79,ESE,111,0.0,-999.0,84,-99.99,,,-99.99,,2013-07-22 07:22:00,
2013-07-22 00:33:00,65.0,60.0,29.79,ESE,111,0.0,-999.0,84,-99.99,,,-99.99,,2013-07-22 07:33:00,
2013-07-22 00:43:00,65.0,60.0,29.78,ESE,111,0.0,-999.0,84,-99.99,,,-99.99,,2013-07-22 07:43:00,
2013-07-22 00:52:00,66.0,61.0,29.78,ESE,111,0.0,-999.0,84,-99.99,,,-99.99,,2013-07-22 07:52:00,
2013-07-22 01:01:00,66.0,61.0,29.78,ESE,111,0.0,-999.0,84,-99.99,,,-99.99,,2013-07-22 08:01:00,
2013-07-22 01:11:00,66.0,61.0,29.79,ESE,111,0.0,-999.0,84,-99.99,,,-99.99,,2013-07-22 08:11:00,
2013-07-22 01:22:00,66.0,61.0,29.79,ESE,111,0.0,-999.0,84,-99.99,,,-99.99,,2013-07-22 08:22:00,
2013-07-22 01:32:00,66.0,61.0,29.79,ESE,111,0.0,-999.0,85,-99.99,,,-99.99,,2013-07-22 08:32:00,
2013-07-22 01:43:00,65.0,61.0,29.79,ESE,111,0.0,-999.0,86,-99.99,,,-99.99,,2013-07-22 08:43:00,
2013-07-22 01:52:00,65.0,61.0,29.79,ESE,111,0.0,-999.0,86,-99.99,,,-99.99,,2013-07-22 08:52:00,
2013-07-22 02:02:00,65.0,61.0,29.78,ESE,111,0.0,-999.0,87,-99.99,,,-99.99,,2013-07-22 09:02:00,
2013-07-22 02:11:00,65.0,61.0,29.77,ESE,111,0.0,-999.0,87,-99.99,,,-99.99,,2013-07-22 09:11:00,
2013-07-22 02:22:00,65.0,61.0,29.77,ESE,111,0.0,-999.0,88,-99.99,,,-99.99,,2013-07-22 09:22:00,
2013-07-22 02:33:00,65.0,61.0,29.77,ESE,111,0.0,-999.0,88,-99.99,,,-99.99,,2013-07-22 09:33:00,
2013-07-22 02:42:00,65.0,61.0,29.77,ESE,111,0.0,-999.0,88,-99.99,,,-99.99,,2013-07-22 09:42:00,
2013-07-22 02:52:00,64.0,61.0,29.76,ESE,111,0.0,-999.0,89,-99.99,,,-99.99,,2013-07-22 09:52:00,
2013-07-22 03:01:00,64.0,61.0,29.76,ESE,111,0.0,-999.0,89,-99.99,,,-99.99,,2013-07-22 10:01:00,
2013-07-22 03:11:00,64.0,61.0,29.77,ESE,111,0.0,-999.0,90,-99.99,,,-99.99,,2013-07-22 10:11:00,
2013-07-22 03:22:00,64.0,61.0,29.78,ESE,111,0.0,-999.0,90,-99.99,,,-99.99,,2013-07-22 10:22:00,
2013-07-22 03:32:00,64.0,61.0,29.78,ESE,111,0.0,-999.0,90,-99.99,,,-99.99,,2013-07-22 10:32:00,
2013-07-22 03:43:00,64.0,61.0,29.77,ESE,111,0.0,-999.0,90,-99.99,,,-99.99,,2013-07-22 10:43:00,
2013-07-22 03:52:00,64.0,61.0,29.77,ESE,111,0.0,-999.0,90,-99.99,,,-99.99,,2013-07-22 10:52:00,
2013-07-22 04:01:00,64.0,61.0,29.77,ESE,111,0.0,-999.0,90,-99.99,,,-99.99,,2013-07-22 11:01:00,
2013-07-22 04:11:00,64.0,61.0,29.77,ESE,111,0.0,-999.0,91,-99.99,,,-99.99,,2013-07-22 11:11:00,
2013-07-22 04:32:00,63.0,60.0,29.78,ESE,111,0.0,-999.0,90,-99.99,,,-99.99,,2013-07-22 11:32:00,
2013-07-22 04:43:00,63.0,60.0,29.78,ESE,111,0.0,-999.0,91,-99.99,,,-99.99,,2013-07-22 11:43:00,
2013-07-22 04:52:00,63.0,60.0,29.78,ESE,111,0.0,-999.0,91,-99.99,,,-99.99,,2013-07-22 11:52:00,
2013-07-22 05:02:00,63.0,60.0,29.78,ESE,111,0.0,-999.0,91,-99.99,,,-99.99,,2013-07-22 12:02:00,
2013-07-22 05:11:00,63.0,60.0,29.78,ESE,111,0.0,-999.0,91,-99.99,,,-99.99,,2013-07-22 12:11:00,
2013-07-22 05:32:00,63.0,61.0,29.78,ESE,111,0.0,-999.0,92,-99.99,,,-99.99,,2013-07-22 12:32:00,
2013-07-22 05:43:00,63.0,61.0,29.78,ESE,111,0.0,-999.0,92,-99.99,,,-99.99,,2013-07-22 12:43:00,
2013-07-22 05:52:00,63.0,61.0,29.78,ESE,111,0.0,-999.0,92,-99.99,,,-99.99,,2013-07-22 12:52:00,
2013-07-22 06:32:00,63.0,61.0,29.79,ESE,111,0.0,-999.0,92,-99.99,,,-99.99,,2013-07-22 13:32:00,
2013-07-22 06:43:00,63.0,61.0,29.79,ESE,111,0.0,-999.0,92,-99.99,,,-99.99,,2013-07-22 13:43:00,
2013-07-22 06:53:00,63.0,61.0,29.79,ESE,111,0.0,-999.0,92,-99.99,,,-99.99,,2013-07-22 13:53:00,
2013-07-22 07:01:00,63.0,61.0,29.79,ESE,111,0.0,-999.0,93,-99.99,,,-99.99,,2013-07-22 14:01:00,
2013-07-22 07:11:00,63.0,61.0,29.80,ESE,111,0.0,-999.0,93,-99.99,,,-99.99,,2013-07-22 14:11:00,
2013-07-22 07:32:00,63.0,61.0,29.80,ESE,111,0.0,-999.0,93,-99.99,,,-99.99,,2013-07-22 14:32:00,
2013-07-22 07:53:00,64.0,62.0,29.81,ESE,111,0.0,-999.0,93,-99.99,,,-99.99,,2013-07-22 14:53:00,
2013-07-22 08:01:00,64.0,62.0,29.81,ESE,111,0.0,-999.0,94,-99.99,,,-99.99,,2013-07-22 15:01:00,
2013-07-22 08:32:00,64.0,62.0,29.82,ESE,111,0.0,-999.0,94,-99.99,,,-99.99,,2013-07-22 15:32:00,
2013-07-22 08:42:00,65.0,63.0,29.83,ESE,111,0.0,-999.0,93,-99.99,,,-99.99,,2013-07-22 15:42:00,
2013-07-22 08:52:00,65.0,63.0,29.83,ESE,111,0.0,-999.0,93,-99.99,,,-99.99,,2013-07-22 15:52:00,
2013-07-22 09:01:00,65.0,63.0,29.83,ESE,111,0.0,-999.0,93,-99.99,,,-99.99,,2013-07-22 16:01:00,
2013-07-22 09:11:00,66.0,64.0,29.83,ESE,111,0.0,-999.0,92,-99.99,,,-99.99,,2013-07-22 16:11:00,
2013-07-22 09:32:00,67.0,64.0,29.83,ESE,111,0.0,-999.0,90,-99.99,,,-99.99,,2013-07-22 16:32:00,
2013-07-22 09:43:00,68.0,65.0,29.83,ESE,111,0.0,-999.0,90,-99.99,,,-99.99,,2013-07-22 16:43:00,
2013-07-22 09:52:00,69.0,64.0,29.82,SE,126,0.0,-999.0,84,-99.99,,,-99.99,,2013-07-22 16:52:00,
2013-07-22 10:01:00,69.0,64.0,29.82,SE,126,0.0,-999.0,84,-99.99,,,-99.99,,2013-07-22 17:01:00,
2013-07-22 10:11:00,70.0,65.0,29.83,East,99,0.0,-999.0,83,-99.99,,,-99.99,,2013-07-22 17:11:00,
2013-07-22 10:23:00,71.0,65.0,29.82,ESE,115,0.0,-999.0,80,-99.99,,,-99.99,,2013-07-22 17:23:00,
2013-07-22 10:32:00,71.0,65.0,29.82,ESE,115,0.0,-999.0,80,-99.99,,,-99.99,,2013-07-22 17:32:00,
2013-07-22 10:43:00,72.0,64.0,29.83,East,90,0.0,-999.0,77,-99.99,,,-99.99,,2013-07-22 17:43:00,
2013-07-22 10:52:00,73.0,65.0,29.83,ESE,115,0.0,-999.0,76,-99.99,,,-99.99,,2013-07-22 17:52:00,
2013-07-22 11:02:00,73.0,65.0,29.83,ESE,115,0.0,-999.0,76,-99.99,,,-99.99,,2013-07-22 18:02:00,
2013-07-22 11:13:00,74.0,65.0,29.83,ENE,77,0.0,-999.0,74,-99.99,,,-99.99,,2013-07-22 18:13:00,
2013-07-22 11:21:00,74.0,65.0,29.83,ENE,77,0.0,-999.0,74,-99.99,,,-99.99,,2013-07-22 18:21:00,
2013-07-22 12:02:00,79.0,66.0,29.82,NE,44,1.0,-999.0,64,-99.99,,,-99.99,,2013-07-22 19:02:00,
2013-07-22 12:12:00,81.0,67.0,29.82,NE,46,1.0,-999.0,62,-99.99,,,-99.99,,2013-07-22 19:12:00,
2013-07-22 12:21:00,81.0,67.0,29.82,NE,46,1.0,-999.0,62,-99.99,,,-99.99,,2013-07-22 19:21:00,
2013-07-22 12:43:00,82.0,66.0,29.82,East,83,1.0,-999.0,58,-99.99,,,-99.99,,2013-07-22 19:43:00,
2013-07-22 13:01:00,82.0,66.0,29.82,North,9,1.0,-999.0,58,-99.99,,,-99.99,,2013-07-22 20:01:00,
2013-07-22 13:12:00,83.0,66.0,29.82,ESE,110,0.0,-999.0,56,-99.99,,,-99.99,,2013-07-22 20:12:00,
2013-07-22 13:32:00,83.0,65.0,29.81,SE,125,0.0,-999.0,55,-99.99,,,-99.99,,2013-07-22 20:32:00,
2013-07-22 13:43:00,84.0,66.0,29.80,NE,44,0.0,-999.0,55,-99.99,,,-99.99,,2013-07-22 20:43:00,
2013-07-22 14:01:00,84.0,64.0,29.81,ESE,119,1.0,-999.0,52,-99.99,,,-99.99,,2013-07-22 21:01:00,
2013-07-22 14:11:00,85.0,65.0,29.81,ESE,109,1.0,-999.0,52,-99.99,,,-99.99,,2013-07-22 21:11:00,
2013-07-22 14:32:00,85.0,64.0,29.80,SE,136,1.0,-999.0,49,-99.99,,,-99.99,,2013-07-22 21:32:00,
2013-07-22 14:43:00,85.0,64.0,29.81,NE,36,1.0,-999.0,50,-99.99,,,-99.99,,2013-07-22 21:43:00,
2013-07-22 15:11:00,85.0,64.0,29.80,SE,125,1.0,-999.0,49,-99.99,,,-99.99,,2013-07-22 22:11:00,
2013-07-22 15:32:00,85.0,64.0,29.80,ESE,119,1.0,-999.0,49,-99.99,,,-99.99,,2013-07-22 22:32:00,
2013-07-22 15:43:00,84.0,63.0,29.80,ESE,107,0.0,-999.0,50,-99.99,,,-99.99,,2013-07-22 22:43:00,
2013-07-22 15:52:00,84.0,63.0,29.80,ESE,107,0.0,-999.0,50,-99.99,,,-99.99,,2013-07-22 22:52:00,
2013-07-22 16:01:00,85.0,64.0,29.80,ENE,62,1.0,-999.0,49,-99.99,,,-99.99,,2013-07-22 23:01:00,
2013-07-22 16:22:00,85.0,64.0,29.80,East,101,1.0,-999.0,49,-99.99,,,-99.99,,2013-07-22 23:22:00,
2013-07-22 16:32:00,84.0,64.0,29.79,East,79,1.0,-999.0,51,-99.99,,,-99.99,,2013-07-22 23:32:00,
2013-07-22 16:42:00,84.0,63.0,29.79,ESE,113,1.0,-999.0,50,-99.99,,,-99.99,,2013-07-22 23:42:00,
2013-07-22 16:52:00,84.0,64.0,29.79,ESE,115,1.0,-999.0,51,-99.99,,,-99.99,,2013-07-22 23:52:00,
2013-07-22 17:01:00,84.0,64.0,29.79,ESE,115,1.0,-999.0,51,-99.99,,,-99.99,,2013-07-23 00:01:00,
2013-07-22 17:11:00,83.0,64.0,29.79,ESE,120,0.0,-999.0,52,-99.99,,,-99.99,,2013-07-23 00:11:00,
2013-07-22 17:22:00,83.0,64.0,29.79,ESE,120,0.0,-999.0,52,-99.99,,,-99.99,,2013-07-23 00:22:00,
2013-07-22 17:32:00,83.0,64.0,29.79,SE,141,0.0,-999.0,52,-99.99,,,-99.99,,2013-07-23 00:32:00,
2013-07-22 17:43:00,82.0,63.0,29.78,East,92,1.0,-999.0,53,-99.99,,,-99.99,,2013-07-23 00:43:00,
2013-07-22 18:01:00,81.0,63.0,29.78,East,101,1.0,-999.0,54,-99.99,,,-99.99,,2013-07-23 01:01:00,
2013-07-22 18:11:00,80.0,62.0,29.78,NE,50,0.0,-999.0,55,-99.99,,,-99.99,,2013-07-23 01:11:00,
2013-07-22 18:32:00,79.0,61.0,29.78,SSE,148,1.0,-999.0,55,-99.99,,,-99.99,,2013-07-23 01:32:00,
2013-07-22 18:43:00,78.0,62.0,29.79,ESE,111,1.0,-999.0,57,-99.99,,,-99.99,,2013-07-23 01:43:00,
2013-07-22 19:01:00,77.0,61.0,29.80,East,97,0.0,-999.0,58,-99.99,,,-99.99,,2013-07-23 02:01:00,
2013-07-22 19:11:00,76.0,60.0,29.80,East,96,0.0,-999.0,58,-99.99,,,-99.99,,2013-07-23 02:11:00,
2013-07-22 19:33:00,75.0,60.0,29.81,ESE,112,0.0,-999.0,60,-99.99,,,-99.99,,2013-07-23 02:33:00,
2013-07-22 19:43:00,73.0,59.0,29.81,ESE,112,0.0,-999.0,62,-99.99,,,-99.99,,2013-07-23 02:43:00,
2013-07-22 20:01:00,71.0,58.0,29.81,ESE,117,0.0,-999.0,64,-99.99,,,-99.99,,2013-07-23 03:01:00,
2013-07-22 20:11:00,70.0,58.0,29.81,SE,131,0.0,-999.0,66,-99.99,,,-99.99,,2013-07-23 03:11:00,
2013-07-22 20:33:00,70.0,59.0,29.81,SE,132,0.0,-999.0,68,-99.99,,,-99.99,,2013-07-23 03:33:00,
2013-07-22 20:43:00,69.0,58.0,29.82,SE,132,0.0,-999.0,69,-99.99,,,-99.99,,2013-07-23 03:43:00,
2013-07-22 20:52:00,69.0,58.0,29.82,SE,132,0.0,-999.0,69,-99.99,,,-99.99,,2013-07-23 03:52:00,
2013-07-22 21:01:00,69.0,58.0,29.82,SE,131,0.0,-999.0,69,-99.99,,,-99.99,,2013-07-23 04:01:00,
2013-07-22 21:11:00,69.0,58.0,29.82,SE,131,0.0,-999.0,69,-99.99,,,-99.99,,2013-07-23 04:11:00,
2013-07-22 21:21:00,69.0,58.0,29.83,SE,132,0.0,-999.0,68,-99.99,,,-99.99,,2013-07-23 04:21:00,
2013-07-22 21:32:00,69.0,58.0,29.82,SE,132,0.0,-999.0,69,-99.99,,,-99.99,,2013-07-23 04:32:00,
2013-07-22 21:42:00,68.0,58.0,29.82,SE,132,0.0,-999.0,70,-99.99,,,-99.99,,2013-07-23 04:42:00,
2013-07-22 21:53:00,68.0,58.0,29.83,SE,132,0.0,-999.0,71,-99.99,,,-99.99,,2013-07-23 04:53:00,
2013-07-22 22:02:00,68.0,58.0,29.83,SE,132,0.0,-999.0,71,-99.99,,,-99.99,,2013-07-23 05:02:00,
2013-07-22 22:11:00,68.0,58.0,29.83,SE,132,0.0,-999.0,70,-99.99,,,-99.99,,2013-07-23 05:11:00,
2013-07-22 22:21:00,68.0,58.0,29.83,SE,132,0.0,-999.0,70,-99.99,,,-99.99,,2013-07-23 05:21:00,
2013-07-22 22:33:00,68.0,58.0,29.83,SE,132,0.0,-999.0,70,-99.99,,,-99.99,,2013-07-23 05:33:00,
2013-07-22 22:43:00,67.0,59.0,29.83,SE,132,0.0,-999.0,75,-99.99,,,-99.99,,2013-07-23 05:43:00,
2013-07-22 22:52:00,67.0,59.0,29.83,SE,132,0.0,-999.0,75,-99.99,,,-99.99,,2013-07-23 05:52:00,
2013-07-22 23:01:00,66.0,59.0,29.83,SE,132,0.0,-999.0,78,-99.99,,,-99.99,,2013-07-23 06:01:00,
2013-07-22 23:11:00,66.0,59.0,29.83,SE,132,0.0,-999.0,79,-99.99,,,-99.99,,2013-07-23 06:11:00,
2013-07-22 23:33:00,66.0,59.0,29.83,SE,131,0.0,-999.0,78,-99.99,,,-99.99,,2013-07-23 06:33:00,
2013-07-22 23:42:00,65.0,58.0,29.84,SE,132,0.0,-999.0,77,-99.99,,,-99.99,,2013-07-23 06:42:00,